Showing default

EUCROPIS, 43807

Orbit data source: Space-Track

EUCROPIS, 43807 is a payload satellite owned by DLR (DE) in SSO that was launched on Mon, 03 Dec 2018 UTC via an FALCON 9 launch vehicle from the Air Force Western Test Range (AFWTR). Payload-class satellites include a variety of spacecraft equipped with specific instruments for various scientific and technological missions. These include communications satellites like Starlink; space stations such as the ISS; scientific satellites like the Hubble; Earth observation satellites from companies like Planet Labs, Umbra, and HawkEye 360; GPS; miniature CubeSats for education and research; and military/defense satellites.

Loading next visibility...
Identifier
43807, 2018-099BB
Orbit
SSO
Country
Flag of DEDE / GER
Related business
Manufacturer
DLR-ISS
Mission
Operational Civil Science
Bus & Motor
CSBUS, Unknown motor
Mass
250 kg wet, 250 kg dry
Launch date (UTC)
2018-12-03 (8 years ago)
Launch vehicle
FALCON 9
Launch site
Air Force Western Test Range (AFWTR)
Object type
Payload
Rocket body
Debris
Shape & HBR
Cyl + 4 Pan, 1.5 m
Radar Cross Section
2.317 m², Large (>1 m²)

Expand to show TLE details & history
Last TLE update: 8 hours ago

TLE from 8 hours ago
0 EUCROPIS
1 43807U 18099BB  26220.10732125  .00004186  00000-0  19024-3 0  9990
2 43807  97.4189 275.1044 0007234 112.7273 247.4728 15.21281464420356
Epoch: 2026-08-08T02:34Z
TLE epoch observation values (Epoch: 2026-08-08T02:34:32.555Z)
Latitude
-0.00006°
Longitude
-80.15465°
Altitude
506.976 km
Speed
7.61 km/s
True Right ascension
18h 20m 25s
True Declination
0° 00' 00"
Sunlit
Object was in full shadow at epoch
Visualization orbit readout
Latitude
Unknown
Longitude
Unknown
Altitude
Unknown
Speed
Unknown
Apparent Right ascension
Unknown
Apparent Declination
Unknown
Sunlit
N/A
Visualization observer readout
Local Sidereal Time
01:06:45
Azimuth
Unknown
Elevation
Unknown
Doppler factor
Unknown
Orbital elements
Apogee altitude
503.914 km
Perigee altitude
493.964 km
Semi-major axis
6,877.076 km
Eccentricity
0.00072
Inclination
97.4189°
RAAN
275.1044°
Arg. of periapsis
112.7273°
True anomaly
247.39626°
Mean anomaly
247.4728°
Eccentric anomaly
247.43453°
Mean motion
3.80573 °/min
Orbital period
94.59 mins
BSTAR
0.00019024
Loading maneuver chart data...
Computing Atmospheric mass density...
Loading historical data...
Loading historical data...
Loading historical data...
Loading historical data...
Loading historical data...
Loading historical data...
Loading historical data...

Documentation

Showing up to 5 results
|